Free Severe Weather Alerts by Email and Text Message   

 
Follow iAlert.com on twitter @ialertcom
Search For Active Alerts in Your Area  
  Hi Guest:  [ Sign-up / Services ] [ Login ]

Current weather by "City, St" or "zip code"  

 

Advertise Here

Hazardous Weather Conditions

Winter Weather Advisory issued December 15 at 3:26AM EST until December 15 at 9:00PM EST

Current Conditions: PHILADELPHIA, PENNSYLVANIA

Light Snow Fog/Mist


25.0 F

Last Updated on Dec 15 2017, 5:54 pm EST
Humidity: 85%
Wind Speed: N 0.0 mph
Barometer 29.94 in
Dewpoint: 21.0 F
Visibility: 1.50 mi
Precip: 00.03 in
Heat Index: NA
Wind Chill: NA
Current conditions at:

Philadelphia, Northeast Philadelphia Airport, PA (KPNE)

Lat: 40.07 Lon: -75.013

Local Radar Image active severe weather and emergency alerts image image weather storm and storm spotter reports image weather observation monitoring service image
Local
Radar
Active
Alerts
Storm Reports Weather
Monitoring

Weather Alert Notification Services


ialert severe weather and emergency alerts by text message and email ialert daily weather forecast by email and text message service ialert real-time weather-observation monitoring and alert notification service ialert storm report monitoring alert notification

Observation History for PHILADELPHIA, PENNSYLVANIA


Time Wind
(mph)
Vis
(mi)
Weather Precip (in) Temperature (F) Relative
Humidity
Wind
Chill
(°F)
Heat
Index
(°F)
Pressure
Air Dwpt altimeter
(in)
sea level
(mb)
5:54 pm EST N 0.0 1.50 Light Snow Fog/Mist 00.03 25.0 21.0 85% NA NA 29.94 1014.0
4:54 pm EST N 0.0 0.75 Light Snow Fog/Mist 00.06 25.0 21.9 88% NA NA 29.95 1014.4
3:54 pm EST N 3.5 0.25 Snow Freezing Fog 00.05 25.0 21.9 88% NA NA 29.96 1014.7
2:54 pm EST N 3.5 0.50 Snow 00.04 26.0 21.0 81% NA NA 29.95 1014.3
1:54 pm EST N 0.0 1.75 Light Snow Trace 26.0 18.0 71% NA NA 29.98 1015.2
12:54 pm EST N 0.0 10.00 Overcast -- 29.0 12.0 49% NA NA 30.01 1016.3
11:54 am EST SE 3.5 10.00 Overcast -- 28.0 12.0 51% NA NA 30.05 1017.7
10:54 am EST N 0.0 10.00 Overcast -- 29.0 10.9 47% NA NA 30.10 1019.4
9:54 am EST N 0.0 10.00 Overcast -- 28.0 10.9 49% NA NA 30.13 1020.3
8:54 am EST N 0.0 10.00 A Few Clouds -- 26.0 12.9 57% NA NA 30.13 1020.4
7:54 am EST N 0.0 10.00 Fair -- 24.0 12.0 60% NA NA 30.14 1020.6
6:54 am EST N 0.0 10.00 Fair -- 23.0 12.9 65% NA NA 30.14 1020.8
5:54 am EST N 0.0 10.00 Fair -- 21.0 10.9 65% NA NA 30.14 1020.8
4:54 am EST N 0.0 10.00 Fair -- 22.0 10.0 60% NA NA 30.13 1020.5
3:54 am EST N 0.0 10.00 Fair -- 21.0 9.0 59% NA NA 30.13 1020.4
2:54 am EST N 5.8 10.00 Fair -- 22.0 8.1 55% 15 NA 30.13 1020.3
1:54 am EST N 9.2 10.00 Fair -- 24.0 9.0 52% 14 NA 30.12 1020.2
12:54 am EST NW 3.5 10.00 Fair -- 24.0 8.1 50% NA NA 30.13 1020.5
11:54 pm EST N 0.0 10.00 Fair -- 24.0 8.1 50% NA NA 30.14 1020.7
10:54 pm EST NW 10.4 10.00 Fair -- 26.0 8.1 46% 16 NA 30.13 1020.3
9:54 pm EST NW 3.5 10.00 Fair -- 27.0 10.0 49% NA NA 30.11 1019.9
8:54 pm EST W 3.5 10.00 Fair -- 28.0 9.0 44% NA NA 30.09 1019.2
7:54 pm EST NW 3.5 10.00 Fair -- 28.0 10.0 47% NA NA 30.08 1018.6
6:54 pm EST NW 6.9 10.00 Fair -- 29.0 10.9 47% 22 NA 30.04 1017.5

Regional Weather Observation:


Pottstown, Pottstown Limerick Airport, PA (KPTW)

Fog/Mist
22.0 F

Doylestown, Doylestown Airport, PA (KDYL)

Light Snow
22.0 F

Quakertown Airport, PA (KUKT)

Overcast
21.0 F

Allentown Queen City Municipal Airport, PA (KXLL)

Light Snow
23.0 F

Reading, Reading Regional Airport, PA (KRDG)

Fog/Mist
22.0 F

Philadelphia, Philadelphia International Airport, PA (KPHL)

Light Snow Fog/Mist
25.0 F

Advertise Here


Advertise Here